Tarawa Terrace, NC

9:24 AM EST on February 07, 2016 (GMT -0500)
New River Marine Corps Air Station

Weather History for KNCA - January, 2013

Change the Weather History Date:

Tuesday, January 15, 2013

  Actual Average Record
Temperature  
Mean Temperature 62 °F -  
Max Temperature 68 °F 52 °F 75 °F (2007)
Min Temperature 55 °F 32 °F 21 °F (2003)
Degree Days  
Heating Degree Days 4    
Growing Degree Days 12 (Base 50)    
Moisture  
Dew Point 56 °F    
Average Humidity 82    
Maximum Humidity 94    
Minimum Humidity 68    
Precipitation  
Precipitation 0.00 in - - ()
Sea Level Pressure  
Sea Level Pressure 30.15 in    
Wind  
Wind Speed 5 mph (NE)    
Max Wind Speed 10 mph    
Max Gust Speed 22 mph    
Visibility 7 miles    
Events Fog    
Averages and records for this station are not official NWS values.
T = Trace of Precipitation, MM = Missing Value Source: NWS Daily Summary

Daily Weather History Graph

Daily Weather History Graph

Search for Another Location

Airport or City:

Trip Planner

Search our weather history database for the weather conditions in past years. The results will help you decide how hot, cold, wet, or windy it might be!

Date:

Astronomy

Jan. 15, 2013 Rise Set
Actual Time 7:16 AM EST 5:22 PM EST
Civil Twilight 6:49 AM EST 5:49 PM EST
Nautical Twilight 6:18 AM EST 6:20 PM EST
Astronomical Twilight 5:47 AM EST 6:51 PM EST
Moon 9:33 AM EST (1/15) 9:56 PM EST (1/15)
Length of Visible Light 11h 00m
Length of Day
10h 05m
Waxing Crescent, 19% of the Moon is Illuminated
Jan 15
Waxing Crescent
Jan 18
First Quarter
Jan 26
Full
Feb 3
Last Quarter
Feb 10
New

Hourly Weather History & Observations

Time (EST) Temp. Dew Point Humidity Pressure Visibility Wind Dir Wind Speed Gust Speed Precip Events Conditions
12:56 AM 63.0 °F 57.0 °F 81% 30.18 in 10.0 mi SW 4.6 mph - N/A   Clear
1:56 AM 63.0 °F 57.9 °F 84% 30.17 in 10.0 mi SSW 6.9 mph - N/A   Clear
2:56 AM 64.0 °F 57.9 °F 80% 30.16 in 10.0 mi SSW 9.2 mph - N/A   Clear
3:56 AM 63.0 °F 57.0 °F 81% 30.15 in 10.0 mi WSW 4.6 mph - N/A   Clear
4:56 AM 62.1 °F 57.0 °F 84% 30.13 in 10.0 mi Calm Calm - N/A   Clear
5:56 AM 57.0 °F 55.0 °F 93% 30.13 in 2.5 mi Calm Calm - N/A   Clear
6:37 AM 55.4 °F 53.6 °F 94% 30.14 in 0.2 mi NE 4.6 mph - N/A Fog Fog
6:52 AM 59.0 °F 55.4 °F 88% 30.15 in 2.5 mi North 3.5 mph - N/A   Mostly Cloudy
6:56 AM 59.0 °F 57.0 °F 93% 30.16 in 5.0 mi North 4.6 mph - N/A   Mostly Cloudy
7:01 AM 59.0 °F 55.4 °F 88% 30.15 in 6.0 mi North 5.8 mph - N/A   Scattered Clouds
7:20 AM 60.8 °F 57.2 °F 88% 30.16 in 4.0 mi North 5.8 mph - N/A   Mostly Cloudy
7:29 AM 60.8 °F 57.2 °F 88% 30.16 in 5.0 mi NNE 3.5 mph - N/A   Mostly Cloudy
7:56 AM 60.1 °F 57.0 °F 90% 30.18 in 4.0 mi Calm Calm - N/A   Overcast
8:14 AM 60.8 °F 57.2 °F 88% 30.17 in 4.0 mi Calm Calm - N/A   Overcast
8:56 AM 62.1 °F 57.9 °F 86% 30.20 in 6.0 mi ENE 3.5 mph - N/A   Overcast
9:56 AM 63.0 °F 57.9 °F 84% 30.21 in 8.0 mi NNE 5.8 mph - N/A   Overcast
10:56 AM 63.0 °F 57.9 °F 84% 30.20 in 7.0 mi ENE 3.5 mph - N/A   Overcast
11:56 AM 64.0 °F 57.9 °F 80% 30.17 in 6.0 mi Calm Calm - N/A   Overcast
12:27 PM 64.4 °F 57.2 °F 77% 30.15 in 8.0 mi Calm Calm - N/A   Overcast
12:44 PM 68.0 °F 57.2 °F 68% 30.14 in 9.0 mi NNE 3.5 mph - N/A   Overcast
12:56 PM 66.9 °F 59.0 °F 76% 30.15 in 9.0 mi ENE 4.6 mph - N/A   Overcast
1:56 PM 68.0 °F 59.0 °F 73% 30.14 in 10.0 mi North 8.1 mph - N/A   Overcast
2:56 PM 66.9 °F 55.9 °F 68% 30.15 in 10.0 mi North 8.1 mph - N/A   Scattered Clouds
3:03 PM 66.2 °F 55.4 °F 68% 30.13 in 10.0 mi NNE 9.2 mph - N/A   Mostly Cloudy
4:03 PM 64.4 °F 55.4 °F 73% 30.14 in 9.0 mi North 6.9 mph - N/A   Overcast
4:22 PM 64.4 °F 55.4 °F 73% 30.15 in 9.0 mi NNE 5.8 mph 21.9 mph N/A   Overcast
4:56 PM 63.0 °F 55.0 °F 75% 30.16 in 9.0 mi ENE 6.9 mph - N/A   Overcast
5:05 PM 62.6 °F 55.4 °F 77% 30.15 in 9.0 mi NE 8.1 mph - N/A   Overcast
5:13 PM 62.6 °F 53.6 °F 72% 30.15 in 8.0 mi NE 8.1 mph - N/A   Overcast
5:20 PM 62.6 °F 53.6 °F 72% 30.15 in 9.0 mi NE 6.9 mph - N/A   Overcast
5:56 PM 61.0 °F 55.0 °F 81% 30.17 in 9.0 mi ENE 9.2 mph - N/A   Overcast
6:56 PM 57.9 °F 53.1 °F 84% 30.17 in 7.0 mi ENE 10.4 mph - N/A   Overcast
7:47 PM 57.2 °F 53.6 °F 88% 30.15 in 6.0 mi East 5.8 mph - N/A   Overcast
7:56 PM 57.0 °F 53.1 °F 87% 30.16 in 6.0 mi East 8.1 mph - N/A   Overcast
8:56 PM 57.0 °F 53.1 °F 87% 30.15 in 5.0 mi East 4.6 mph - 0.00 in   Overcast
9:56 PM 57.0 °F 53.1 °F 87% 30.14 in 6.0 mi East 4.6 mph - N/A   Overcast
10:56 PM 57.0 °F 53.1 °F 87% 30.11 in 7.0 mi ESE 5.8 mph - N/A   Overcast
11:56 PM 57.9 °F 54.0 °F 87% 30.09 in 8.0 mi Calm Calm - N/A   Overcast